"Sample Date","Sample Time","Sensor Name","Sample Value","Units","Flow Rate","Sample Interval","Sample Volume","Laser Status","Number Channels","Micron Size 0","Counts/Channel 0","Micron Size 1","Counts/Channel 1","Micron Size 2","Counts/Channel 2","Micron Size 3","Counts/Channel 3","Micron Size 4","Counts/Channel 4","Micron Size 5","Counts/Channel 5","Micron Size 6","Counts/Channel 6","Micron Size 7","Counts/Channel 7","Micron Size 8","Counts/Channel 8","Micron Size 9","Counts/Channel 9","Micron Size 10","Counts/Channel 10","Micron Size 11","Counts/Channel 11","Micron Size 12","Counts/Channel 12","Micron Size 13","Counts/Channel 13","Micron Size 14","Counts/Channel 14","Micron Size 15","Counts/Channel 15","Micron Size 16","Counts/Channel 16","Micron Size 17","Counts/Channel 17","Micron Size 18","Counts/Channel 18","Micron Size 19","Counts/Channel 19","Micron Size 20","Counts/Channel 20","Micron Size 21","Counts/Channel 21","Micron Size 22","Counts/Channel 22","Micron Size 23","Counts/Channel 23","Micron Size 24","Counts/Channel 24","Micron Size 25","Counts/Channel 25","Micron Size 26","Counts/Channel 26","Micron Size 27","Counts/Channel 27","Micron Size 28","Counts/Channel 28","Micron Size 29","Counts/Channel 29","Micron Size 30","Counts/Channel 30","Micron Size 31","Counts/Channel 31"
"07/03/06","13:00:02","AMMA06",72272.000,"cc",28313.055,6.00,2831.306,1,6,0.100,35586.000,0.200,27576.000,0.300,5913.000,0.500,1951.000,1.000,1244.000,5.000,2.000
"07/03/06","13:00:08","AMMA06",71641.000,"cc",28338.004,6.00,2833.801,1,6,0.100,35209.000,0.200,27238.000,0.300,5966.000,0.500,1956.000,1.000,1271.000,5.000,1.000
"07/03/06","13:00:14","AMMA06",71781.000,"cc",28289.508,6.00,2828.951,1,6,0.100,35458.000,0.200,27133.000,0.300,5972.000,0.500,1980.000,1.000,1238.000,5.000,0
"07/03/06","13:00:20","AMMA06",71545.000,"cc",28292.232,6.00,2829.223,1,6,0.100,35606.000,0.200,26838.000,0.300,5930.000,0.500,1971.000,1.000,1200.000,5.000,0
"07/03/06","13:00:26","AMMA06",71605.000,"cc",28298.408,6.00,2829.841,1,6,0.100,35223.000,0.200,27349.000,0.300,5869.000,0.500,1912.000,1.000,1251.000,5.000,1.000
"07/03/06","13:00:32","AMMA06",72053.000,"cc",28324.209,6.00,2832.421,1,6,0.100,35372.000,0.200,27416.000,0.300,5966.000,0.500,2062.000,1.000,1235.000,5.000,2.000
"07/03/06","13:00:38","AMMA06",71383.000,"cc",28320.740,6.00,2832.074,1,6,0.100,35014.000,0.200,27169.000,0.300,5929.000,0.500,2028.000,1.000,1242.000,5.000,1.000
"07/03/06","13:00:44","AMMA06",71729.000,"cc",28353.223,6.00,2835.323,1,6,0.100,35161.000,0.200,27294.000,0.300,6038.000,0.500,1988.000,1.000,1247.000,5.000,1.000
"07/03/06","13:00:50","AMMA06",72057.000,"cc",28372.264,6.00,2837.227,1,6,0.100,35455.000,0.200,27239.000,0.300,5984.000,0.500,2068.000,1.000,1309.000,5.000,2.000
"07/03/06","13:00:56","AMMA06",71709.000,"cc",28290.990,6.00,2829.099,1,6,0.100,34981.000,0.200,27368.000,0.300,6155.000,0.500,1946.000,1.000,1258.000,5.000,1.000
"07/03/06","13:01:02","AMMA06",71744.000,"cc",28283.643,6.00,2828.365,1,6,0.100,35083.000,0.200,27476.000,0.300,5993.000,0.500,1905.000,1.000,1285.000,5.000,2.000
"07/03/06","13:01:08","AMMA06",71656.000,"cc",28313.883,6.00,2831.388,1,6,0.100,35173.000,0.200,27190.000,0.300,6094.000,0.500,1990.000,1.000,1208.000,5.000,1.000
"07/03/06","13:01:14","AMMA06",71729.000,"cc",28329.541,6.00,2832.954,1,6,0.100,35082.000,0.200,27476.000,0.300,5961.000,0.500,1964.000,1.000,1246.000,5.000,0
"07/03/06","13:01:20","AMMA06",71993.000,"cc",28302.881,6.00,2830.288,1,6,0.100,35359.000,0.200,27356.000,0.300,6059.000,0.500,2001.000,1.000,1218.000,5.000,0
"07/03/06","13:01:26","AMMA06",71520.000,"cc",28351.850,6.00,2835.185,1,6,0.100,34781.000,0.200,27545.000,0.300,5944.000,0.500,2008.000,1.000,1241.000,5.000,1.000
"07/03/06","13:01:32","AMMA06",71704.000,"cc",28258.484,6.00,2825.849,1,6,0.100,34759.000,0.200,27554.000,0.300,6151.000,0.500,1950.000,1.000,1286.000,5.000,4.000
"07/03/06","13:01:38","AMMA06",71779.000,"cc",28279.193,6.00,2827.919,1,6,0.100,35148.000,0.200,27269.000,0.300,6011.000,0.500,1998.000,1.000,1351.000,5.000,2.000
"07/03/06","13:01:44","AMMA06",72041.000,"cc",28311.941,6.00,2831.194,1,6,0.100,35049.000,0.200,27569.000,0.300,6258.000,0.500,1903.000,1.000,1261.000,5.000,1.000
"07/03/06","13:01:50","AMMA06",71921.000,"cc",28359.141,6.00,2835.914,1,6,0.100,34844.000,0.200,27625.000,0.300,6154.000,0.500,2009.000,1.000,1288.000,5.000,1.000
"07/03/06","13:01:56","AMMA06",71873.000,"cc",28343.004,6.00,2834.301,1,6,0.100,35094.000,0.200,27262.000,0.300,6279.000,0.500,1991.000,1.000,1247.000,5.000,0
"07/03/06","13:02:02","AMMA06",71669.000,"cc",28312.838,6.00,2831.284,1,6,0.100,34910.000,0.200,27269.000,0.300,6196.000,0.500,2004.000,1.000,1289.000,5.000,1.000
"07/03/06","13:02:08","AMMA06",71416.000,"cc",28316.440,6.00,2831.644,1,6,0.100,34771.000,0.200,27150.000,0.300,6172.000,0.500,2020.000,1.000,1303.000,5.000,0
"07/03/06","13:02:14","AMMA06",71570.000,"cc",28324.090,6.00,2832.409,1,6,0.100,34550.000,0.200,27585.000,0.300,6105.000,0.500,1984.000,1.000,1343.000,5.000,3.000
"07/03/06","13:02:20","AMMA06",71986.000,"cc",28359.531,6.00,2835.953,1,6,0.100,34809.000,0.200,27657.000,0.300,6362.000,0.500,1869.000,1.000,1289.000,5.000,0
"07/03/06","13:02:26","AMMA06",72054.000,"cc",28293.520,6.00,2829.352,1,6,0.100,34937.000,0.200,27652.000,0.300,6239.000,0.500,1947.000,1.000,1279.000,5.000,0
"07/03/06","13:02:32","AMMA06",72559.000,"cc",28285.859,6.00,2828.586,1,6,0.100,35733.000,0.200,27222.000,0.300,6299.000,0.500,1983.000,1.000,1321.000,5.000,1.000
"07/03/06","13:02:38","AMMA06",72333.000,"cc",28291.531,6.00,2829.153,1,6,0.100,35406.000,0.200,27545.000,0.300,6147.000,0.500,2010.000,1.000,1224.000,5.000,1.000
"07/03/06","13:02:44","AMMA06",72029.000,"cc",28333.357,6.00,2833.336,1,6,0.100,35146.000,0.200,27451.000,0.300,6230.000,0.500,1919.000,1.000,1280.000,5.000,3.000
"07/03/06","13:02:50","AMMA06",72694.000,"cc",28318.600,6.00,2831.860,1,6,0.100,35435.000,0.200,27778.000,0.300,6173.000,0.500,2013.000,1.000,1293.000,5.000,2.000
"07/03/06","13:02:56","AMMA06",72337.000,"cc",28311.572,6.00,2831.158,1,6,0.100,35478.000,0.200,27406.000,0.300,6184.000,0.500,1976.000,1.000,1293.000,5.000,0
"07/03/06","13:03:02","AMMA06",72373.000,"cc",28357.471,6.00,2835.747,1,6,0.100,35308.000,0.200,27635.000,0.300,6178.000,0.500,2002.000,1.000,1248.000,5.000,2.000
"07/03/06","13:03:08","AMMA06",72836.000,"cc",28303.785,6.00,2830.379,1,6,0.100,35566.000,0.200,27802.000,0.300,6237.000,0.500,1949.000,1.000,1281.000,5.000,1.000
"07/03/06","13:03:14","AMMA06",72195.000,"cc",28301.199,6.00,2830.120,1,6,0.100,35684.000,0.200,27178.000,0.300,6186.000,0.500,1907.000,1.000,1238.000,5.000,2.000
"07/03/06","13:03:20","AMMA06",72435.000,"cc",28329.742,6.00,2832.974,1,6,0.100,35632.000,0.200,27432.000,0.300,6094.000,0.500,1926.000,1.000,1351.000,5.000,0
"07/03/06","13:03:26","AMMA06",71851.000,"cc",28324.600,6.00,2832.460,1,6,0.100,35050.000,0.200,27477.000,0.300,6099.000,0.500,1941.000,1.000,1283.000,5.000,1.000
"07/03/06","13:03:32","AMMA06",72593.000,"cc",28324.266,6.00,2832.427,1,6,0.100,35662.000,0.200,27408.000,0.300,6303.000,0.500,1984.000,1.000,1235.000,5.000,1.000
"07/03/06","13:03:38","AMMA06",72611.000,"cc",28269.283,6.00,2826.929,1,6,0.100,35780.000,0.200,27412.000,0.300,6138.000,0.500,1987.000,1.000,1293.000,5.000,1.000
"07/03/06","13:03:44","AMMA06",72663.000,"cc",28286.518,6.00,2828.652,1,6,0.100,35689.000,0.200,27611.000,0.300,6188.000,0.500,1935.000,1.000,1238.000,5.000,2.000
"07/03/06","13:03:50","AMMA06",72602.000,"cc",28353.277,6.00,2835.328,1,6,0.100,35750.000,0.200,27658.000,0.300,6017.000,0.500,1920.000,1.000,1257.000,5.000,0
"07/03/06","13:03:56","AMMA06",72479.000,"cc",28303.090,6.00,2830.309,1,6,0.100,35832.000,0.200,27236.000,0.300,6201.000,0.500,1896.000,1.000,1312.000,5.000,2.000
"07/03/06","13:04:02","AMMA06",72803.000,"cc",28330.731,6.00,2833.073,1,6,0.100,35966.000,0.200,27524.000,0.300,6094.000,0.500,1983.000,1.000,1235.000,5.000,1.000
"07/03/06","13:04:08","AMMA06",73116.000,"cc",28299.002,6.00,2829.900,1,6,0.100,36193.000,0.200,27595.000,0.300,6077.000,0.500,1975.000,1.000,1272.000,5.000,4.000
"07/03/06","13:04:14","AMMA06",72433.000,"cc",28280.746,6.00,2828.075,1,6,0.100,35775.000,0.200,27353.000,0.300,6053.000,0.500,1917.000,1.000,1335.000,5.000,0
"07/03/06","13:04:20","AMMA06",72222.000,"cc",28362.760,6.00,2836.276,1,6,0.100,35495.000,0.200,27335.000,0.300,6139.000,0.500,1950.000,1.000,1300.000,5.000,3.000
"07/03/06","13:04:26","AMMA06",71950.000,"cc",28322.123,6.00,2832.212,1,6,0.100,35650.000,0.200,27185.000,0.300,5999.000,0.500,1893.000,1.000,1222.000,5.000,1.000
"07/03/06","13:04:32","AMMA06",72162.000,"cc",28274.148,6.00,2827.415,1,6,0.100,35620.000,0.200,27372.000,0.300,5967.000,0.500,1914.000,1.000,1287.000,5.000,2.000
"07/03/06","13:04:38","AMMA06",72036.000,"cc",28388.242,6.00,2838.825,1,6,0.100,35470.000,0.200,27369.000,0.300,5932.000,0.500,2003.000,1.000,1262.000,5.000,0
"07/03/06","13:04:44","AMMA06",71712.000,"cc",28348.141,6.00,2834.814,1,6,0.100,35339.000,0.200,27178.000,0.300,5976.000,0.500,2006.000,1.000,1212.000,5.000,1.000
"07/03/06","13:04:50","AMMA06",72617.000,"cc",28288.486,6.00,2828.849,1,6,0.100,35851.000,0.200,27612.000,0.300,6012.000,0.500,1910.000,1.000,1229.000,5.000,3.000
"07/03/06","13:04:56","AMMA06",72542.000,"cc",28318.164,6.00,2831.817,1,6,0.100,36182.000,0.200,27290.000,0.300,5958.000,0.500,1926.000,1.000,1186.000,5.000,0
"07/03/06","13:05:02","AMMA06",72469.000,"cc",28335.279,6.00,2833.528,1,6,0.100,36072.000,0.200,27491.000,0.300,5815.000,0.500,1870.000,1.000,1221.000,5.000,0
"07/03/06","13:05:08","AMMA06",72659.000,"cc",28268.477,6.00,2826.848,1,6,0.100,36071.000,0.200,27396.000,0.300,5943.000,0.500,1987.000,1.000,1261.000,5.000,1.000
"07/03/06","13:05:14","AMMA06",72510.000,"cc",28324.734,6.00,2832.474,1,6,0.100,36111.000,0.200,27318.000,0.300,5858.000,0.500,1963.000,1.000,1259.000,5.000,1.000
"07/03/06","13:05:20","AMMA06",72356.000,"cc",28335.065,6.00,2833.507,1,6,0.100,36088.000,0.200,27031.000,0.300,5971.000,0.500,2024.000,1.000,1239.000,5.000,3.000
"07/03/06","13:05:26","AMMA06",72572.000,"cc",28304.916,6.00,2830.492,1,6,0.100,36135.000,0.200,27168.000,0.300,5987.000,0.500,1991.000,1.000,1289.000,5.000,2.000
"07/03/06","13:05:32","AMMA06",72774.000,"cc",28360.652,6.00,2836.065,1,6,0.100,36424.000,0.200,27213.000,0.300,5941.000,0.500,1920.000,1.000,1275.000,5.000,1.000
"07/03/06","13:05:38","AMMA06",72223.000,"cc",28330.840,6.00,2833.084,1,6,0.100,36010.000,0.200,27256.000,0.300,5746.000,0.500,1929.000,1.000,1281.000,5.000,1.000
"07/03/06","13:05:44","AMMA06",71825.000,"cc",28306.039,6.00,2830.604,1,6,0.100,35905.000,0.200,26902.000,0.300,5805.000,0.500,1958.000,1.000,1254.000,5.000,1.000
"07/03/06","13:05:50","AMMA06",71710.000,"cc",28334.486,6.00,2833.449,1,6,0.100,35738.000,0.200,27018.000,0.300,5862.000,0.500,1849.000,1.000,1243.000,5.000,0
"07/03/06","13:05:56","AMMA06",72183.000,"cc",28316.520,6.00,2831.652,1,6,0.100,35865.000,0.200,27185.000,0.300,5863.000,0.500,1991.000,1.000,1278.000,5.000,1.000
"07/03/06","13:06:02","AMMA06",71625.000,"cc",28316.246,6.00,2831.625,1,6,0.100,35664.000,0.200,26977.000,0.300,5852.000,0.500,1929.000,1.000,1202.000,5.000,1.000
"07/03/06","13:06:08","AMMA06",71376.000,"cc",28264.840,6.00,2826.484,1,6,0.100,35696.000,0.200,26734.000,0.300,5823.000,0.500,1949.000,1.000,1173.000,5.000,1.000
"07/03/06","13:06:14","AMMA06",71909.000,"cc",28312.744,6.00,2831.275,1,6,0.100,35584.000,0.200,27409.000,0.300,5758.000,0.500,1911.000,1.000,1247.000,5.000,0
"07/03/06","13:06:20","AMMA06",72028.000,"cc",28302.666,6.00,2830.267,1,6,0.100,35975.000,0.200,27167.000,0.300,5780.000,0.500,1924.000,1.000,1180.000,5.000,2.000
"07/03/06","13:06:26","AMMA06",72491.000,"cc",28308.191,6.00,2830.819,1,6,0.100,35920.000,0.200,27429.000,0.300,5897.000,0.500,2045.000,1.000,1200.000,5.000,0
"07/03/06","13:06:32","AMMA06",72088.000,"cc",28337.670,6.00,2833.767,1,6,0.100,35673.000,0.200,27346.000,0.300,5828.000,0.500,2026.000,1.000,1214.000,5.000,1.000
"07/03/06","13:06:38","AMMA06",71988.000,"cc",28302.904,6.00,2830.291,1,6,0.100,35639.000,0.200,27130.000,0.300,5946.000,0.500,2012.000,1.000,1259.000,5.000,2.000
"07/03/06","13:06:44","AMMA06",71995.000,"cc",28302.965,6.00,2830.297,1,6,0.100,35670.000,0.200,27208.000,0.300,5845.000,0.500,2016.000,1.000,1255.000,5.000,1.000
"07/03/06","13:06:50","AMMA06",72342.000,"cc",28327.547,6.00,2832.755,1,6,0.100,36107.000,0.200,27140.000,0.300,5937.000,0.500,1931.000,1.000,1226.000,5.000,1.000
"07/03/06","13:06:56","AMMA06",72630.000,"cc",28337.363,6.00,2833.737,1,6,0.100,36156.000,0.200,27305.000,0.300,5927.000,0.500,1936.000,1.000,1305.000,5.000,1.000
"07/03/06","13:07:02","AMMA06",72112.000,"cc",28353.838,6.00,2835.384,1,6,0.100,35653.000,0.200,27269.000,0.300,5901.000,0.500,1985.000,1.000,1304.000,5.000,0
"07/03/06","13:07:08","AMMA06",72691.000,"cc",28330.336,6.00,2833.034,1,6,0.100,35851.000,0.200,27541.000,0.300,6068.000,0.500,1995.000,1.000,1235.000,5.000,1.000
"07/03/06","13:07:14","AMMA06",72377.000,"cc",28310.065,6.00,2831.007,1,6,0.100,36044.000,0.200,27199.000,0.300,5907.000,0.500,1897.000,1.000,1326.000,5.000,4.000
"07/03/06","13:07:20","AMMA06",72677.000,"cc",28279.697,6.00,2827.970,1,6,0.100,35899.000,0.200,27568.000,0.300,5865.000,0.500,2044.000,1.000,1300.000,5.000,1.000
"07/03/06","13:07:26","AMMA06",73259.000,"cc",28332.783,6.00,2833.279,1,6,0.100,36188.000,0.200,27546.000,0.300,6216.000,0.500,1966.000,1.000,1343.000,5.000,0
"07/03/06","13:07:32","AMMA06",72294.000,"cc",28299.912,6.00,2829.992,1,6,0.100,35741.000,0.200,27427.000,0.300,5959.000,0.500,1964.000,1.000,1203.000,5.000,0
"07/03/06","13:07:38","AMMA06",72389.000,"cc",28358.221,6.00,2835.822,1,6,0.100,35742.000,0.200,27334.000,0.300,6135.000,0.500,1913.000,1.000,1264.000,5.000,1.000
"07/03/06","13:07:44","AMMA06",72665.000,"cc",28303.877,6.00,2830.388,1,6,0.100,35803.000,0.200,27552.000,0.300,6122.000,0.500,1930.000,1.000,1256.000,5.000,2.000
"07/03/06","13:07:50","AMMA06",72717.000,"cc",28359.551,6.00,2835.955,1,6,0.100,36202.000,0.200,27435.000,0.300,5947.000,0.500,1906.000,1.000,1226.000,5.000,1.000
"07/03/06","13:07:56","AMMA06",72392.000,"cc",28313.141,6.00,2831.314,1,6,0.100,35747.000,0.200,27307.000,0.300,6152.000,0.500,1940.000,1.000,1245.000,5.000,1.000
"07/03/06","13:08:02","AMMA06",72867.000,"cc",28305.570,6.00,2830.557,1,6,0.100,36271.000,0.200,27268.000,0.300,6083.000,0.500,1967.000,1.000,1277.000,5.000,1.000
"07/03/06","13:08:08","AMMA06",72635.000,"cc",28335.895,6.00,2833.590,1,6,0.100,35780.000,0.200,27526.000,0.300,6075.000,0.500,1933.000,1.000,1319.000,5.000,2.000
"07/03/06","13:08:14","AMMA06",73506.000,"cc",28332.871,6.00,2833.287,1,6,0.100,36167.000,0.200,27762.000,0.300,6265.000,0.500,1985.000,1.000,1326.000,5.000,1.000
"07/03/06","13:08:20","AMMA06",73640.000,"cc",28315.229,6.00,2831.523,1,6,0.100,36198.000,0.200,27890.000,0.300,6218.000,0.500,1977.000,1.000,1356.000,5.000,1.000
"07/03/06","13:08:26","AMMA06",73277.000,"cc",28327.885,6.00,2832.789,1,6,0.100,36054.000,0.200,27875.000,0.300,6185.000,0.500,1932.000,1.000,1229.000,5.000,2.000
"07/03/06","13:08:32","AMMA06",73403.000,"cc",28317.320,6.00,2831.732,1,6,0.100,36247.000,0.200,27589.000,0.300,6323.000,0.500,1916.000,1.000,1328.000,5.000,0
"07/03/06","13:08:38","AMMA06",73353.000,"cc",28295.082,6.00,2829.508,1,6,0.100,35904.000,0.200,27928.000,0.300,6316.000,0.500,1974.000,1.000,1228.000,5.000,3.000
"07/03/06","13:08:44","AMMA06",73320.000,"cc",28308.799,6.00,2830.880,1,6,0.100,36092.000,0.200,27705.000,0.300,6312.000,0.500,1928.000,1.000,1283.000,5.000,0
"07/03/06","13:08:50","AMMA06",73346.000,"cc",28318.856,6.00,2831.886,1,6,0.100,35943.000,0.200,27782.000,0.300,6316.000,0.500,1970.000,1.000,1333.000,5.000,2.000
"07/03/06","13:08:56","AMMA06",73598.000,"cc",28330.428,6.00,2833.043,1,6,0.100,36031.000,0.200,27921.000,0.300,6340.000,0.500,1998.000,1.000,1307.000,5.000,1.000
"07/03/06","13:09:02","AMMA06",73307.000,"cc",28299.635,6.00,2829.964,1,6,0.100,35643.000,0.200,27944.000,0.300,6438.000,0.500,1932.000,1.000,1349.000,5.000,1.000
"07/03/06","13:09:08","AMMA06",73344.000,"cc",28303.568,6.00,2830.357,1,6,0.100,35921.000,0.200,27712.000,0.300,6437.000,0.500,1976.000,1.000,1295.000,5.000,3.000
"07/03/06","13:09:14","AMMA06",73767.000,"cc",28313.412,6.00,2831.341,1,6,0.100,36148.000,0.200,27821.000,0.300,6509.000,0.500,1984.000,1.000,1304.000,5.000,1.000
"07/03/06","13:09:20","AMMA06",73137.000,"cc",28327.582,6.00,2832.758,1,6,0.100,35739.000,0.200,27827.000,0.300,6378.000,0.500,1937.000,1.000,1256.000,5.000,0
"07/03/06","13:09:26","AMMA06",73824.000,"cc",28340.848,6.00,2834.085,1,6,0.100,36096.000,0.200,27982.000,0.300,6513.000,0.500,1913.000,1.000,1317.000,5.000,3.000
"07/03/06","13:09:32","AMMA06",73447.000,"cc",28279.561,6.00,2827.956,1,6,0.100,35744.000,0.200,27972.000,0.300,6529.000,0.500,1911.000,1.000,1290.000,5.000,1.000
"07/03/06","13:09:38","AMMA06",73728.000,"cc",28298.240,6.00,2829.824,1,6,0.100,35922.000,0.200,28101.000,0.300,6310.000,0.500,2003.000,1.000,1388.000,5.000,4.000
"07/03/06","13:09:44","AMMA06",73073.000,"cc",28352.623,6.00,2835.263,1,6,0.100,35809.000,0.200,27845.000,0.300,6206.000,0.500,1904.000,1.000,1308.000,5.000,1.000
"07/03/06","13:09:50","AMMA06",72644.000,"cc",28315.996,6.00,2831.600,1,6,0.100,35544.000,0.200,27377.000,0.300,6480.000,0.500,1906.000,1.000,1336.000,5.000,1.000
"07/03/06","13:09:56","AMMA06",72919.000,"cc",28328.885,6.00,2832.889,1,6,0.100,35601.000,0.200,27744.000,0.300,6357.000,0.500,1957.000,1.000,1258.000,5.000,2.000
"07/03/06","13:10:02","AMMA06",72887.000,"cc",28298.934,6.00,2829.894,1,6,0.100,35685.000,0.200,27723.000,0.300,6141.000,0.500,2021.000,1.000,1315.000,5.000,2.000
"07/03/06","13:10:08","AMMA06",72743.000,"cc",28299.293,6.00,2829.929,1,6,0.100,35760.000,0.200,27551.000,0.300,6228.000,0.500,1941.000,1.000,1261.000,5.000,2.000
"07/03/06","13:10:14","AMMA06",72457.000,"cc",28362.943,6.00,2836.294,1,6,0.100,35652.000,0.200,27525.000,0.300,6091.000,0.500,1931.000,1.000,1256.000,5.000,2.000
"07/03/06","13:10:20","AMMA06",72540.000,"cc",28320.975,6.00,2832.098,1,6,0.100,35806.000,0.200,27443.000,0.300,6039.000,0.500,2014.000,1.000,1238.000,5.000,0
"07/03/06","13:10:26","AMMA06",72200.000,"cc",28301.744,6.00,2830.175,1,6,0.100,35631.000,0.200,27303.000,0.300,6051.000,0.500,1923.000,1.000,1291.000,5.000,1.000
"07/03/06","13:10:32","AMMA06",72438.000,"cc",28323.248,6.00,2832.325,1,6,0.100,35726.000,0.200,27395.000,0.300,6043.000,0.500,1956.000,1.000,1317.000,5.000,1.000
"07/03/06","13:10:38","AMMA06",72824.000,"cc",28341.061,6.00,2834.106,1,6,0.100,36016.000,0.200,27540.000,0.300,6053.000,0.500,1911.000,1.000,1304.000,5.000,0
"07/03/06","13:10:44","AMMA06",72045.000,"cc",28307.752,6.00,2830.775,1,6,0.100,35802.000,0.200,27013.000,0.300,6029.000,0.500,1910.000,1.000,1289.000,5.000,2.000
"07/03/06","13:10:50","AMMA06",72469.000,"cc",28308.607,6.00,2830.861,1,6,0.100,35782.000,0.200,27397.000,0.300,5954.000,0.500,2017.000,1.000,1317.000,5.000,2.000
"07/03/06","13:10:56","AMMA06",71614.000,"cc",28337.820,6.00,2833.782,1,6,0.100,35247.000,0.200,27220.000,0.300,5941.000,0.500,1942.000,1.000,1263.000,5.000,1.000
"07/03/06","13:11:02","AMMA06",72290.000,"cc",28330.830,6.00,2833.083,1,6,0.100,35862.000,0.200,27199.000,0.300,6009.000,0.500,1948.000,1.000,1269.000,5.000,3.000
"07/03/06","13:11:08","AMMA06",71930.000,"cc",28315.848,6.00,2831.585,1,6,0.100,35643.000,0.200,27111.000,0.300,6011.000,0.500,1921.000,1.000,1243.000,5.000,1.000
"07/03/06","13:11:14","AMMA06",72534.000,"cc",28316.963,6.00,2831.697,1,6,0.100,36058.000,0.200,27350.000,0.300,5907.000,0.500,1900.000,1.000,1318.000,5.000,1.000
"07/03/06","13:11:20","AMMA06",71965.000,"cc",28279.742,6.00,2827.974,1,6,0.100,35285.000,0.200,27539.000,0.300,5927.000,0.500,1970.000,1.000,1242.000,5.000,2.000
"07/03/06","13:11:26","AMMA06",72234.000,"cc",28335.801,6.00,2833.580,1,6,0.100,35823.000,0.200,27246.000,0.300,5900.000,0.500,1976.000,1.000,1289.000,5.000,0
"07/03/06","13:11:32","AMMA06",71570.000,"cc",28292.539,6.00,2829.254,1,6,0.100,35299.000,0.200,27247.000,0.300,5836.000,0.500,1926.000,1.000,1260.000,5.000,2.000
"07/03/06","13:11:38","AMMA06",72382.000,"cc",28328.338,6.00,2832.834,1,6,0.100,35895.000,0.200,27362.000,0.300,5919.000,0.500,1969.000,1.000,1236.000,5.000,1.000
"07/03/06","13:11:44","AMMA06",72176.000,"cc",28318.377,6.00,2831.838,1,6,0.100,35773.000,0.200,27169.000,0.300,6001.000,0.500,1930.000,1.000,1301.000,5.000,2.000
"07/03/06","13:11:50","AMMA06",71770.000,"cc",28334.303,6.00,2833.430,1,6,0.100,35697.000,0.200,26916.000,0.300,5884.000,0.500,1990.000,1.000,1282.000,5.000,1.000
"07/03/06","13:11:56","AMMA06",72286.000,"cc",28281.943,6.00,2828.195,1,6,0.100,36161.000,0.200,27050.000,0.300,5868.000,0.500,1880.000,1.000,1326.000,5.000,1.000
"07/03/06","13:12:02","AMMA06",72008.000,"cc",28312.969,6.00,2831.297,1,6,0.100,35691.000,0.200,27038.000,0.300,6000.000,0.500,2006.000,1.000,1271.000,5.000,2.000
"07/03/06","13:12:08","AMMA06",72167.000,"cc",28307.201,6.00,2830.720,1,6,0.100,35713.000,0.200,27177.000,0.300,6015.000,0.500,1953.000,1.000,1307.000,5.000,2.000
"07/03/06","13:12:14","AMMA06",72188.000,"cc",28331.914,6.00,2833.192,1,6,0.100,35723.000,0.200,27323.000,0.300,5885.000,0.500,1981.000,1.000,1276.000,5.000,0
"07/03/06","13:12:20","AMMA06",72222.000,"cc",28285.361,6.00,2828.536,1,6,0.100,35797.000,0.200,27307.000,0.300,5890.000,0.500,1938.000,1.000,1288.000,5.000,2.000
"07/03/06","13:12:26","AMMA06",71516.000,"cc",28358.504,6.00,2835.851,1,6,0.100,35432.000,0.200,26949.000,0.300,5898.000,0.500,1947.000,1.000,1289.000,5.000,1.000
"07/03/06","13:12:32","AMMA06",72326.000,"cc",28348.348,6.00,2834.835,1,6,0.100,35906.000,0.200,27236.000,0.300,6025.000,0.500,1965.000,1.000,1192.000,5.000,2.000
"07/03/06","13:12:38","AMMA06",72258.000,"cc",28260.926,6.00,2826.093,1,6,0.100,35816.000,0.200,27287.000,0.300,5952.000,0.500,1977.000,1.000,1224.000,5.000,2.000
"07/03/06","13:12:44","AMMA06",72092.000,"cc",28354.586,6.00,2835.459,1,6,0.100,35527.000,0.200,27404.000,0.300,5928.000,0.500,1990.000,1.000,1243.000,5.000,0
"07/03/06","13:12:50","AMMA06",71475.000,"cc",28343.623,6.00,2834.363,1,6,0.100,35658.000,0.200,26711.000,0.300,5854.000,0.500,1904.000,1.000,1347.000,5.000,1.000
"07/03/06","13:12:56","AMMA06",71305.000,"cc",28269.877,6.00,2826.988,1,6,0.100,35222.000,0.200,26875.000,0.300,6026.000,0.500,1940.000,1.000,1241.000,5.000,1.000
"07/03/06","13:13:02","AMMA06",71714.000,"cc",28316.215,6.00,2831.622,1,6,0.100,35671.000,0.200,26908.000,0.300,5931.000,0.500,1945.000,1.000,1259.000,5.000,0
"07/03/06","13:13:08","AMMA06",71639.000,"cc",28340.938,6.00,2834.094,1,6,0.100,35373.000,0.200,27028.000,0.300,5906.000,0.500,1974.000,1.000,1356.000,5.000,2.000
"07/03/06","13:13:14","AMMA06",72285.000,"cc",28276.553,6.00,2827.656,1,6,0.100,35766.000,0.200,27404.000,0.300,5941.000,0.500,1965.000,1.000,1206.000,5.000,3.000
"07/03/06","13:13:20","AMMA06",71999.000,"cc",28296.305,6.00,2829.631,1,6,0.100,35706.000,0.200,27187.000,0.300,5958.000,0.500,1899.000,1.000,1247.000,5.000,2.000
"07/03/06","13:13:26","AMMA06",71979.000,"cc",28341.520,6.00,2834.152,1,6,0.100,35636.000,0.200,27166.000,0.300,5928.000,0.500,1937.000,1.000,1311.000,5.000,1.000
"07/03/06","13:13:32","AMMA06",71656.000,"cc",28336.941,6.00,2833.694,1,6,0.100,35173.000,0.200,27282.000,0.300,6080.000,0.500,1936.000,1.000,1184.000,5.000,1.000
"07/03/06","13:13:38","AMMA06",72065.000,"cc",28310.963,6.00,2831.096,1,6,0.100,35598.000,0.200,27059.000,0.300,6043.000,0.500,2032.000,1.000,1331.000,5.000,2.000
"07/03/06","13:13:44","AMMA06",72129.000,"cc",28349.100,6.00,2834.910,1,6,0.100,35600.000,0.200,27199.000,0.300,6073.000,0.500,1996.000,1.000,1260.000,5.000,1.000
"07/03/06","13:13:50","AMMA06",71789.000,"cc",28319.190,6.00,2831.919,1,6,0.100,35290.000,0.200,27372.000,0.300,5852.000,0.500,1978.000,1.000,1295.000,5.000,2.000